Regional Weather Roundup
Issued by NWS Wakefield, VA

Home | Current Version | Previous Version | Graphics & Text | Print | Product List | Glossary On
Versions: 1 2 3 4 5 6 7 8 9 10 11 12 13 14 15 16 17 18 19 20 21 22 23 24 25 26 27
000
ASUS41 KAKQ 301615
RWRAKQ

REGIONAL WEATHER ROUNDUP
NATIONAL WEATHER SERVICE WAKEFIELD VA
1200 PM EDT SAT APR 30 2016

Note: "fair" indicates few or no clouds below 12,000 feet with no
significant weather and/or obstructions to visibility. * = Denotes
station may not report precipitation (e.g., rain,snow,etc.),
thunder or fog.

VAZ042-051-052>054-056-301700-
NORTHERN VIRGINIA

CITY           SKY/WX    TMP DP  RH WIND       PRES   REMARKS
WASH NATIONAL  CLOUDY    54  47  77 E6        30.22R
DULLES         CLOUDY    54  48  80 SE9       30.20R
FORT BELVOIR   CLOUDY    54  46  74 VRB5      30.21R
QUANTICO       CLOUDY    56  48  74 CALM      30.22R
FREDERICKSBRG* CLOUDY    55  52  88 E7        30.19F
STAFFORD*      CLOUDY    54  48  80 E5        30.25R
WARRENTON      CLOUDY    57  47  70 CALM      30.19S
CULPEPER*      CLOUDY    55  52  87 CALM      30.21S
MANASSAS*      CLOUDY    55  48  76 SE3       30.22R
LEESBURG*      CLOUDY    54  52  94 CALM      30.21R
WINCHESTER     CLOUDY    55  50  82 SE7       30.18S
FRONT ROYAL*   CLOUDY    55  50  82 E5        30.17R
LURAY*         CLOUDY    55  54  94 CALM      30.17R
$$

VAZ048-049-060>072-079>083-301700-
CENTRAL AND SOUTH CENTRAL VIRGINIA

CITY           SKY/WX    TMP DP  RH WIND       PRES   REMARKS
RICHMOND       CLOUDY    58  49  72 E8        30.18S
CHESTERFIELD*  CLOUDY    59  41  51 E8        30.20R
PETERSBURG*    CLOUDY    60  52  73 E6        30.20R
HANOVER        CLOUDY    58  48  69 VRB6      30.20S
TAPPAHANNOCK*  CLOUDY    57  49  75 E5        30.21R
QUINTON*       CLOUDY    57  50  78 E9        30.19R
CHARLOTTSVILLE CLOUDY    57  50  77 CALM      30.19R
GORDONSVILLE*  CLOUDY    56  51  86 NE3       30.19R
ORANGE*        CLOUDY    55  52  88 CALM      30.21S
LOUISA*        CLOUDY    61  54  77 E3        30.18S
BUMPASS*       CLOUDY    58  49  73 E5        30.19S
FARMVILLE*     CLOUDY    59  53  79 E7        30.17R
CREWE*         CLOUDY    60  53  80 E5        30.17R
FORT PICKETT*  NOT AVBL
CHASE CITY*    CLOUDY    58  55  92 SE3       30.18R
CLARKSVILLE*   CLOUDY    57  54  88 E6        30.18R
SOUTH HILL*    CLOUDY    56  52  86 CALM      30.23R
LAWRENCEVILLE* CLOUDY    56  52  85 NE5       30.18R
EMPORIA*       CLOUDY    55  52  88 NE5       30.20S
$$

VAZ088>098-301700-
SOUTHEAST VIRGINIA

CITY           SKY/WX    TMP DP  RH WIND       PRES   REMARKS
NORFOLK        CLOUDY    57  50  77 NE10      30.19R
VIRGINIA BEACH CLOUDY    60  51  72 NE10      30.18R
NORFOLK NAVAL  CLOUDY    58  51  78 E9        30.20R
WEST POINT*    CLOUDY    56  50  79 E7        30.21S
SALUDA*        CLOUDY    54  50  87 NE6       30.20R
NEWPORT NEWS   CLOUDY    56  51  84 E10       30.19R
LANGLEY AFB    CLOUDY    56  51  84 E10       30.19R
FORT EUSTIS    CLOUDY    56  51  81 E7        30.17R
WILLIAMSBURG*  FAIR      57  54  88 E5        30.20R
HR EXEC AP*    CLOUDY    55  52  88 E9        30.21R
FRANKLIN*      CLOUDY    57  51  80 NE7       30.19R
US460-WAKEFLD  CLOUDY    59  50  72 NE6       30.19R
$$

VAZ020-022-025-037-045-301700-
WEST CENTRAL AND SOUTHWEST VIRGINIA

CITY           SKY/WX    TMP DP  RH WIND       PRES   REMARKS
STAUNTON*      CLOUDY    57  53  84 SE6       30.18S
WAYNESBORO*    CLOUDY    52  50  92 MISG      30.17R
HOT SPRINGS VA RAIN      51  51 100 SE6       30.15S VSB<1/4
LYNCHBURG      CLOUDY    55  52  89 E7        30.19R
DANVILLE       CLOUDY    57  56  96 E5        30.16S FOG
SOUTH BOSTON*  CLOUDY    58  57  95 E6        30.17S
MARTINSVILLE   CLOUDY    55  55  97 E3        30.18S FOG
ROANOKE        DRIZZLE   56  54  93 SE10      30.17S FOG
BLACKSBURG     CLOUDY    57  55  94 E7        30.18R FOG
DUBLIN*        CLOUDY    63  57  80 E3        30.14R
MARION*        FAIR      65  55  70 E9        30.13S
HILLSVILLE*    CLOUDY    58  56  92 S7        30.13R
RICHLANDS*     CLOUDY    68  54  60 SE6       30.07S
WISE*          LGT RAIN  63  46  55 S6        30.09R
ABINGDON*      CLOUDY    72  56  57 NE5       30.05S
$$

MDZ021>025-VAZ099-100-301700-
SOUTHERN MARYLAND AND THE DELMARVA PENINSULA

CITY           SKY/WX    TMP DP  RH WIND       PRES   REMARKS
PATUXENT RIVER CLOUDY    54  47  77 E8        30.21R
BAY BRIDGE APT NOT AVBL
LEONARDTOWN    CLOUDY    52  46  82 E5        30.22R
DOVER          CLOUDY    55  48  76 E8        30.21S
GEORGETOWN     CLOUDY    55  45  68 NE12      30.21F
EASTON         CLOUDY   N/A N/A N/A E6        30.24S
CAMBRIDGE      CLOUDY    52  46  82 E5        30.20S
SALISBURY      CLOUDY    54  47  77 NE8       30.19F
OCEAN CITY     CLOUDY    55  48  77 NE9       30.20F
WALLOPS ISLAND CLOUDY    56  47  71 NE15      30.20S
ACCOMACK*      CLOUDY    54  -8   8 NE8       30.19R
$$

NCZ012>017-030>032-301700-
NORTH CENTRAL AND EASTERN NORTH CAROLINA

CITY           SKY/WX    TMP DP  RH WIND       PRES   REMARKS
ROANOKE RAPIDS CLOUDY    55  52  88 E6        30.18R
RALEIGH        CLOUDY    61  56  83 E7        30.17R
ELIZABETH CITY CLOUDY    60  53  77 NE9       30.17S
AHOSKIE*       CLOUDY    57  53  86 NE5       30.18R
EDENTON*       CLOUDY    59  56  88 NE9       30.17S
CURRITUCK*     CLOUDY    59  53  80 NE8G17    30.18S
KILL DEVIL HLS CLOUDY    56  51  84 NE9       30.14F
MANTEO         NOT AVBL
CAPE HATTERAS  CLOUDY    60  53  77 NE9G17    30.14R
TARBORO*       CLOUDY    60  55  84 NE3       30.18R
GOLDSBORO      CLOUDY    66  63  88 NE8       30.13R
WASHINGTON     CLOUDY    58  55  88 NE5       30.17R
GREENVILLE     CLOUDY    59  55  88 SE3       30.18R
NEW BERN       CLOUDY    62  55  77 NE6       30.16R
WILMINGTON     CLOUDY    65  59  81 E10       30.13R
$$

VAZ048-301700-
ELSEWHERE

CITY           SKY/WX    TMP DP  RH WIND       PRES   REMARKS
HARRISBURG PA  CLOUDY    55  45  68 S5        30.20S
BALTIMORE      CLOUDY    54  46  74 E10       30.20S
ANNAPOLIS      CLOUDY    53  47  79 MISG      30.21R
ANDREWS AFB    CLOUDY    54  47  77 E5        30.20R
PHILADELPHIA   PTSUNNY   59  40  49 E6        30.22S
GREENSBORO     DRIZZLE   61  59  94 E10       30.13F FOG
ROCKY MOUNT    CLOUDY    61  55  81 E5        30.16R
$$

VAZ100-301700-
MARINE

STATION/POSITION TIME  TEMP    WIND        PRES    WAVE   SWELL
                       AIR SEA DIR/SP/G            HT/PER HT/PER
                 (UTC) (F)     (DEG/KT/KT) (MB)    (FT/S) (FT/S)
BRANDYWINE LGT   1500   52      60/  7/  9 1023.2R
CAPE MAY NJ      1500   52 57   70/ 10/ 17 1022.6R
LEWES DE         1500   51 54   70/ 12/ 17 1023.1R
15NM E FENWICK I 1550   51 51              1022.6R   6/ 8
OCEAN-CITY-INLET 1500   52 54   70/  5/  8 1022.2R
WACHAPREAGUE VA  1500   54 57   60/ 12/ 15 1021.9R
THOMAS POINT MD  1600   52 57   10/  7/  8 1024.1R
GOOSES REEF MD   1600   53 57   60/  6/  8 1023.6F   1
COVE POINT MD    1500   51      60/  3/  5 1023.1F
SOLOMONS ISLAND  1500   52      60/  5/  6   N/A
BISHOPS HEAD MD  1500   53 57   20/  4/  7 1021.9F
PINEY POINT MD   1500          110/  8/  9   N/A
POTOMAC MD       1600   53 58   80/  6/  8 1021.9R   1
CAMBRIDGE MD     1500   52 59   70/  5/  7 1022.1R
LEWISETTA VA     1500   53 59   70/  7/  9 1022.1F
RAPPAHANNOCK LGT 1500           70/ 10/ 11 1022.5F
STINGRAY PT      1600   55 60   90/  8/ 10 1022.9R   1/ 3
YORK RVR RNG VA  1500   54      70/ 10/ 12 1021.3F
YORKTOWN VA      1500   54 62   70/  9/ 13 1021.7F
JAMESTOWN VA     1600   56 66   70/  6/ 10   N/A     0
DOMINION TERM VA 1500   54      70/ 11/ 14 1021.9S
KIPTOPEKE VA     1500      60   70/  7/ 14   N/A
CHES BAY BRIDGE  1500   54 60   30/ 14/ 16 1021.3F
CAPE HENRY VA    1500   53      40/ 13/ 15   N/A
CHESAPEAKE LGHT  1500   52      30/ 15/ 16 1022.2F
WILLOUBY STN VA  1500   54      60/ 11/ 14 1022.6F
CAPE HENRY BUOY  1512      55                N/A     5/ 8   2/11
CAPE CHARLES BUO 1526      56                N/A     5/11   3/11
OFFSHORE WE BUOY 1521      54                N/A     5/ 8   5/ 8
64NM E OF VA BCH 1550   52 53   20/ 16/ 17 1020.3F   6/ 9   5/ 9
DUCK PIER NC     1500   53 67   20/ 13/ 16 1020.8F
44100 DUCK FRF   1524      56                N/A     6/11   2/11
44056 DUCK FRF   1511      58                N/A     5/ 9   2/11
OREGON INLET NC  1500   55 62   10/ 10/ 16 1020.7F
HATTERAS NC      1500   60 69   30/ 11/ 17 1019.8F
DIAMOND SHLS NC  1550   60 74   30/ 14/ 17 1020.1F   5/10   5/10
CAPE LOOKOUT NC  1600   62      50/ 12/ 13 1020.0F
$$




USA.gov is the U.S. government's official web portal to all federal, state and local government web resources and services.